Starlink 35764

operational
NORAD ID: 67109 Int'l Des: 2025-299 Owner: SPXS Country: US Constellation: starlink
LEOCIRCULAR

Starlink 35764について

説明を読み込み中...

リアルタイム位置

3D地球を読み込み中...

次回通過

高度履歴

Altitude vs Time

uPlot chart will show altitude changes over time

軌道要素

1 67109C 25299H 25349.45951389 .00310810 00000+0 49163-3 0 3494
2 67109 43.0013 301.3100 0007208 268.0492 118.7913 16.02458411 15
Epoch: Dec 15, 2025 • Age: 60 hours

現在のステータス

高度 262.8 km
速度 7.75 km/s
衛星直下点 3.88°N, 21.85°E
打ち上げ日 Dec 15, 2025
運用期間 2 days
タイプ internet

技術仕様

分類 Payload
質量 575.00 kg
乾燥質量 530.00 kg
総質量 575.00 kg
長さ 0.30 m
直径 4.10 m
スパン 29.00 m
形状 Box + pan
製造者 SPXS
バスタイプ Starlink V2MO
フェーズステータス In Orbit
所有者/国 SPXS/US

大規模コンステレーション

Loading constellations...